KG0HG Weather Reports


Display with metric or nautical units.
time (UTC)temp
F
wind
direction
speed
MPH
gust
MPH
rain 1hr
in
rain 24hr
in
rain mn
in
humidity
%
barometer
mb
20260905202854 98 49 0.0 2.0 0.00 0.00 0.00 48 1013.4
20260905202349 98 117 2.0 2.0 0.00 0.00 0.00 48 1013.6
20260905201844 97 138 0.0 2.0 0.00 0.00 0.00 51 1013.7
20260905201340 96 164 0.0 1.0 0.00 0.00 0.00 49 1013.7
20260905200834 97 162 3.0 5.0 0.00 0.00 0.00 49 1013.8
20260905200331 97 104 0.0 1.0 0.00 0.00 0.00 49 1013.8
20260905195827 97 72 0.0 3.0 0.00 0.00 0.00 49 1013.9
20260905195323 98 310 0.0 2.0 0.00 0.00 0.00 48 1013.9
20260905194819 98 312 0.0 2.0 0.00 0.00 0.00 47 1013.9
20260905194313 97 311 1.0 1.0 0.00 0.00 0.00 45 1014.1
20260905193812 97 316 1.0 2.0 0.00 0.00 0.00 46 1013.9
20260905193307 98 316 1.0 1.0 0.00 0.00 0.00 45 1014.1
20260905192803 97 318 0.0 2.0 0.00 0.00 0.00 44 1014.1
20260905192259 98 307 1.0 5.0 0.00 0.00 0.00 43 1014.0
20260905191758 98 156 2.0 3.0 0.00 0.00 0.00 44 1014.2
20260905191256 99 149 1.0 1.0 0.00 0.00 0.00 43 1014.4
20260905190755 98 150 2.0 2.0 0.00 0.00 0.00 44 1014.4
20260905190249 96 151 0.0 0.0 0.00 0.00 0.00 43 1014.3
20260905185747 96 173 0.0 2.0 0.00 0.00 0.00 43 1014.4
20260905185242 96 175 0.0 2.0 0.00 0.00 0.00 45 1014.6
20260905184736 96 203 0.0 2.0 0.00 0.00 0.00 43 1014.4
20260905184236 95 310 1.0 2.0 0.00 0.00 0.00 44 1014.6
20260905183730 95 310 2.0 2.0 0.00 0.00 0.00 44 1014.7
20260905183225 95 311 0.0 1.0 0.00 0.00 0.00 48 1014.8
20260905182719 96 311 0.0 0.0 0.00 0.00 0.00 47 1014.9
20260905182219 96 311 0.0 0.0 0.00 0.00 0.00 47 1014.9
20260905181714 96 318 4.0 5.0 0.00 0.00 0.00 44 1014.9
20260905181213 97 317 0.0 3.0 0.00 0.00 0.00 44 1015.2
20260905180708 96 254 0.0 3.0 0.00 0.00 0.00 44 1015.1
20260905180203 95 313 1.0 3.0 0.00 0.00 0.00 45 1015.0
20260905175703 95 164 1.0 2.0 0.00 0.00 0.00 47 1015.0
20260905175157 96 164 2.0 3.0 0.00 0.00 0.00 46 1015.1
20260905174653 95 164 2.0 2.0 0.00 0.00 0.00 47 1015.1
20260905174149 96 165 3.0 5.0 0.00 0.00 0.00 48 1015.3
20260905173644 94 169 2.0 2.0 0.00 0.00 0.00 47 1015.4
20260905173140 94 178 2.0 3.0 0.00 0.00 0.00 48 1015.3
20260905172639 93 315 0.0 1.0 0.00 0.00 0.00 50 1015.6
20260905172133 95 315 3.0 5.0 0.00 0.00 0.00 48 1015.5
20260905171630 95 158 1.0 3.0 0.00 0.00 0.00 47 1015.8
20260905171126 95 158 0.0 0.0 0.00 0.00 0.00 53 1015.8
20260905170622 95 158 0.0 0.0 0.00 0.00 0.00 56 1016.0
20260905170117 93 158 1.0 2.0 0.00 0.00 0.00 56 1015.8
20260905165611 94 158 3.0 3.0 0.00 0.00 0.00 56 1015.7
20260905165106 93 158 0.0 2.0 0.00 0.00 0.00 57 1015.9
20260905164556 93 158 2.0 2.0 0.00 0.00 0.00 57 1015.8
20260905164050 93 158 1.0 3.0 0.00 0.00 0.00 57 1015.8
20260905163547 93 158 0.0 2.0 0.00 0.00 0.00 57 1016.0
20260905163042 92 158 1.0 1.0 0.00 0.00 0.00 58 1015.8
20260905162539 92 158 1.0 2.0 0.00 0.00 0.00 59 1015.6
20260905162038 92 158 1.0 3.0 0.00 0.00 0.00 58 1015.7
20260905161537 91 158 0.0 1.0 0.00 0.00 0.00 59 1015.7
20260905161036 91 158 1.0 2.0 0.00 0.00 0.00 59 1016.0
20260905160534 90 158 0.0 0.0 0.00 0.00 0.00 59 1015.7
20260905160029 89 158 0.0 3.0 0.00 0.00 0.00 59 1015.8
20260905155529 89 158 0.0 0.0 0.00 0.00 0.00 63 1015.6
20260905155027 89 158 0.0 0.0 0.00 0.00 0.00 64 1015.8
20260905154523 88 158 0.0 0.0 0.00 0.00 0.00 63 1015.5
20260905154018 87 158 0.0 0.0 0.00 0.00 0.00 66 1015.5
20260905153514 87 158 0.0 0.0 0.00 0.00 0.00 70 1015.6
20260905153013 86 158 0.0 0.0 0.00 0.00 0.00 71 1015.7
20260905152508 86 158 0.0 0.0 0.00 0.00 0.00 71 1015.6
20260905152003 85 158 0.0 0.0 0.00 0.00 0.00 72 1015.6
20260905151458 85 158 0.0 0.0 0.00 0.00 0.00 73 1015.7
20260905150953 84 158 0.0 0.0 0.00 0.00 0.00 74 1015.7
20260905150448 84 158 0.0 0.0 0.00 0.00 0.00 73 1015.6
20260905145944 84 158 0.0 0.0 0.00 0.00 0.00 74 1015.5
20260905145439 83 163 0.0 0.0 0.00 0.00 0.00 74 1015.4
20260905144939 82 164 0.0 0.0 0.00 0.00 0.00 76 1015.4
20260905144434 82 164 0.0 0.0 0.00 0.00 0.00 77 1015.3
20260905143933 82 164 0.0 0.0 0.00 0.00 0.00 77 1015.3
20260905143426 82 164 0.0 0.0 0.00 0.00 0.00 77 1015.4
20260905142921 81 164 0.0 0.0 0.00 0.00 0.00 77 1015.3
20260905142420 80 164 0.0 0.0 0.00 0.00 0.00 79 1015.2
20260905141916 80 164 0.0 0.0 0.00 0.00 0.00 80 1015.2
20260905141411 79 164 0.0 0.0 0.00 0.00 0.00 81 1015.3
20260905140907 79 164 0.0 0.0 0.00 0.00 0.00 83 1015.4
20260905140402 78 164 0.0 0.0 0.00 0.00 0.00 86 1015.1
20260905135900 77 164 0.0 0.0 0.00 0.00 0.00 88 1015.2
20260905135356 77 164 0.0 0.0 0.00 0.00 0.00 90 1015.2
20260905134852 77 164 0.0 0.0 0.00 0.00 0.00 91 1015.3
20260905134350 76 164 0.0 0.0 0.00 0.00 0.00 92 1015.1
20260905133845 75 164 0.0 0.0 0.00 0.00 0.00 93 1015.1
20260905133340 75 164 0.0 0.0 0.00 0.00 0.00 94 1015.0
20260905132839 74 164 0.0 0.0 0.00 0.00 0.00 95 1015.0
20260905132335 74 164 0.0 0.0 0.00 0.00 0.00 95 1014.9
20260905131834 74 164 0.0 0.0 0.00 0.00 0.00 96 1015.1
20260905131330 74 164 0.0 0.0 0.00 0.00 0.00 96 1014.7
20260905130825 73 164 0.0 0.0 0.00 0.00 0.00 96 1014.9
20260905130324 73 164 0.0 0.0 0.00 0.00 0.00 96 1014.8
20260905125820 73 164 0.0 0.0 0.00 0.00 0.00 96 1014.8
20260905125314 73 164 0.0 0.0 0.00 0.00 0.00 96 1014.8
20260905124811 73 164 0.0 0.0 0.00 0.00 0.00 97 1014.5
20260905124307 73 164 0.0 0.0 0.00 0.00 0.00 97 1014.4
20260905123801 73 164 0.0 0.0 0.00 0.00 0.00 97 1014.7
20260905123259 73 164 0.0 0.0 0.00 0.00 0.00 97 1014.6
20260905122758 72 164 0.0 0.0 0.00 0.00 0.00 97 1014.4
20260905122257 72 164 0.0 0.0 0.00 0.00 0.00 97 1014.5
20260905121753 72 164 0.0 0.0 0.00 0.00 0.00 97 1014.3
20260905121249 72 165 0.0 0.0 0.00 0.00 0.00 97 1014.3
20260905120748 72 165 0.0 0.0 0.00 0.00 0.00 97 1014.3
20260905120242 72 165 0.0 0.0 0.00 0.00 0.00 98 1014.6
20260905115737 72 165 0.0 0.0 0.00 0.00 0.00 98 1014.4
20260905115237 71 165 0.0 0.0 0.00 0.00 0.00 98 1014.4
20260905114731 71 165 0.0 0.0 0.00 0.00 0.00 98 1014.2
20260905114230 71 165 0.0 0.0 0.00 0.00 0.00 98 1014.1
20260905113730 71 165 0.0 1.0 0.00 0.00 0.00 97 1014.0
20260905113226 71 165 0.0 0.0 0.00 0.00 0.00 97 1014.3
20260905112726 71 165 0.0 0.0 0.00 0.00 0.00 97 1014.0
20260905112221 71 165 0.0 0.0 0.00 0.00 0.00 97 1013.9
20260905111721 71 165 0.0 0.0 0.00 0.00 0.00 97 1013.6
20260905111215 71 165 0.0 0.0 0.00 0.00 0.00 97 1013.7
20260905110714 72 165 0.0 0.0 0.00 0.00 0.00 97 1013.9
20260905110209 72 165 0.0 0.0 0.00 0.00 0.00 97 1013.9
20260905105705 72 165 0.0 0.0 0.00 0.00 0.00 97 1013.6
20260905105203 72 165 0.0 0.0 0.00 0.00 0.00 97 1014.0
20260905104659 72 165 0.0 0.0 0.00 0.00 0.00 97 1013.6
20260905104155 72 165 0.0 0.0 0.00 0.00 0.00 97 1013.7
20260905103650 72 165 0.0 0.0 0.00 0.00 0.00 97 1013.7
20260905103145 72 165 0.0 0.0 0.00 0.00 0.00 97 1013.7
20260905102641 72 165 0.0 0.0 0.00 0.00 0.00 97 1013.7
20260905102137 72 165 0.0 0.0 0.00 0.00 0.00 97 1013.6
20260905101636 72 165 0.0 0.0 0.00 0.00 0.00 97 1013.6
20260905101134 72 165 0.0 0.0 0.00 0.00 0.00 97 1013.6
20260905100631 72 165 0.0 0.0 0.00 0.00 0.00 97 1013.5
20260905100126 72 165 0.0 0.0 0.00 0.00 0.00 97 1013.7
20260905095619 72 165 0.0 0.0 0.00 0.00 0.00 97 1013.7
20260905095114 72 165 0.0 0.0 0.00 0.00 0.00 97 1013.6
20260905094610 72 165 0.0 0.0 0.00 0.00 0.00 97 1014.0
20260905094108 72 165 0.0 0.0 0.00 0.00 0.00 96 1013.7
20260905093603 72 165 0.0 0.0 0.00 0.00 0.00 96 1013.5
20260905093100 72 165 0.0 0.0 0.00 0.00 0.00 96 1013.7
20260905092559 72 165 0.0 0.0 0.00 0.00 0.00 96 1013.6
20260905092055 73 165 0.0 0.0 0.00 0.00 0.00 96 1013.7
20260905091554 73 164 0.0 0.0 0.00 0.00 0.00 96 1013.6
20260905091048 73 164 0.0 0.0 0.00 0.00 0.00 96 1013.7
20260905090543 73 164 0.0 0.0 0.00 0.00 0.00 96 1013.5
20260905090038 73 164 0.0 0.0 0.00 0.00 0.00 96 1013.6
20260905085536 73 164 0.0 0.0 0.00 0.00 0.00 96 1013.7
20260905085033 73 164 0.0 0.0 0.00 0.00 0.00 96 1013.7
20260905084531 73 164 0.0 0.0 0.00 0.00 0.00 96 1013.7
20260905084027 73 164 0.0 0.0 0.00 0.00 0.00 96 1013.8
20260905083516 73 164 0.0 0.0 0.00 0.00 0.00 95 1013.6
20260905083012 73 164 0.0 0.0 0.00 0.00 0.00 95 1013.7
20260905082502 73 164 0.0 0.0 0.00 0.00 0.00 95 1013.8
20260905081957 73 164 0.0 0.0 0.00 0.00 0.00 95 1013.8
20260905081452 73 164 0.0 0.0 0.00 0.00 0.00 95 1013.6
20260905080951 73 164 0.0 0.0 0.00 0.00 0.00 95 1013.4
20260905080446 73 164 0.0 0.0 0.00 0.00 0.00 95 1013.8
20260905075945 74 164 0.0 0.0 0.00 0.00 0.00 95 1013.6
20260905075439 74 164 0.0 0.0 0.00 0.00 0.00 95 1013.6
20260905074938 74 164 0.0 0.0 0.00 0.00 0.00 95 1013.5
20260905074434 74 164 0.0 0.0 0.00 0.00 0.00 95 1013.8
20260905073930 74 164 0.0 0.0 0.00 0.00 0.00 94 1013.5
20260905073425 74 164 0.0 0.0 0.00 0.00 0.00 94 1013.6
20260905072920 74 164 0.0 0.0 0.00 0.00 0.00 94 1013.5
20260905072415 74 164 0.0 1.0 0.00 0.00 0.00 94 1013.6
20260905071910 74 164 0.0 0.0 0.00 0.00 0.00 94 1013.6
20260905071407 74 164 0.0 0.0 0.00 0.00 0.00 94 1013.6
20260905070901 74 164 0.0 0.0 0.00 0.00 0.00 94 1013.7
20260905070358 74 164 0.0 0.0 0.00 0.00 0.00 94 1013.6
20260905065857 74 164 0.0 0.0 0.00 0.00 0.00 94 1013.8
20260905065355 75 164 0.0 0.0 0.00 0.00 0.00 94 1013.8
20260905064851 75 164 0.0 0.0 0.00 0.00 0.00 93 1013.7
20260905064346 75 164 0.0 0.0 0.00 0.00 0.00 93 1013.8
20260905063844 75 164 0.0 0.0 0.00 0.00 0.00 93 1014.0
20260905063341 75 164 0.0 0.0 0.00 0.00 0.00 93 1013.7
20260905062837 75 164 0.0 0.0 0.00 0.00 0.00 93 1013.7
20260905062331 75 164 0.0 0.0 0.00 0.00 0.00 93 1013.7
20260905061826 75 164 0.0 0.0 0.00 0.00 0.00 93 1013.7
20260905061326 75 164 0.0 0.0 0.00 0.00 0.00 93 1013.9
20260905060820 75 164 0.0 0.0 0.00 0.00 0.00 93 1013.8
20260905060317 75 164 0.0 0.0 0.00 0.00 0.00 92 1013.8
20260905055816 75 164 0.0 0.0 0.00 0.00 0.00 92 1013.8
20260905055311 75 164 0.0 0.0 0.00 0.00 0.00 92 1013.7
20260905054811 76 164 0.0 0.0 0.00 0.00 0.00 92 1013.8
20260905054308 76 164 0.0 0.0 0.00 0.00 0.00 92 1013.8
20260905053807 76 164 0.0 0.0 0.00 0.00 0.00 92 1014.0
20260905053301 76 164 0.0 0.0 0.00 0.00 0.00 92 1013.8
20260905052756 76 164 0.0 0.0 0.00 0.00 0.00 91 1013.9
20260905052251 76 164 0.0 0.0 0.00 0.00 0.00 91 1013.9
20260905051750 76 164 0.0 0.0 0.00 0.00 0.00 91 1013.9
20260905051247 77 164 0.0 0.0 0.00 0.00 0.00 91 1014.0
20260905050744 77 164 0.0 0.0 0.00 0.00 0.00 91 1014.0
20260905050240 77 164 0.0 0.0 0.00 0.00 0.00 90 1013.6
20260905045739 77 164 0.0 0.0 0.00 0.00 0.00 90 1013.7
20260905045235 77 164 0.0 0.0 0.00 0.00 0.00 90 1013.8
20260905044730 77 164 0.0 0.0 0.00 0.00 0.00 90 1013.9
20260905044225 77 164 0.0 0.0 0.00 0.00 0.00 89 1013.9
20260905043724 77 164 0.0 0.0 0.00 0.00 0.00 89 1014.0
20260905043218 77 164 0.0 0.0 0.00 0.00 0.00 89 1013.8
20260905042713 78 164 0.0 0.0 0.00 0.00 0.00 89 1013.6
20260905042212 78 164 0.0 0.0 0.00 0.00 0.00 88 1013.8
20260905041708 78 164 0.0 0.0 0.00 0.00 0.00 88 1013.6
20260905041203 78 164 0.0 0.0 0.00 0.00 0.00 88 1013.7
20260905040659 78 164 0.0 0.0 0.00 0.00 0.00 87 1013.7
20260905040156 78 164 0.0 0.0 0.00 0.00 0.00 87 1013.7
20260905035651 79 164 0.0 0.0 0.00 0.00 0.00 86 1013.6
20260905035148 79 164 0.0 0.0 0.00 0.00 0.00 85 1013.8
20260905034644 79 164 0.0 0.0 0.00 0.00 0.00 85 1013.7
20260905034143 79 164 0.0 0.0 0.00 0.00 0.00 84 1014.0
20260905033642 79 164 0.0 0.0 0.00 0.00 0.00 84 1013.8
20260905033138 80 164 0.0 0.0 0.00 0.00 0.00 83 1013.5
20260905032637 80 164 0.0 0.0 0.00 0.00 0.00 83 1013.7
20260905032132 80 164 0.0 0.0 0.00 0.00 0.00 83 1013.8
20260905031628 80 164 0.0 0.0 0.00 0.00 0.00 82 1013.8
20260905031123 80 164 0.0 0.0 0.00 0.00 0.00 81 1013.7
20260905030618 80 164 0.0 0.0 0.00 0.00 0.00 81 1013.8
20260905030114 81 164 0.0 0.0 0.00 0.00 0.00 80 1013.7
20260905025608 81 164 0.0 0.0 0.00 0.00 0.00 80 1013.5
20260905025104 81 164 0.0 0.0 0.00 0.00 0.00 79 1013.6
20260905024600 81 164 0.0 0.0 0.00 0.00 0.00 78 1013.6
20260905024055 82 164 0.0 0.0 0.00 0.00 0.00 78 1013.5
20260905023549 82 164 0.0 0.0 0.00 0.00 0.00 77 1013.5
20260905023044 82 164 0.0 0.0 0.00 0.00 0.00 76 1013.4
20260905022544 82 164 0.0 0.0 0.00 0.00 0.00 75 1013.1
20260905022039 83 164 0.0 0.0 0.00 0.00 0.00 74 1013.1
20260905021539 83 164 0.0 0.0 0.00 0.00 0.00 74 1013.0
20260905021034 84 164 0.0 0.0 0.00 0.00 0.00 73 1013.1
20260905020533 84 164 0.0 0.0 0.00 0.00 0.00 72 1013.1
20260905020029 84 164 0.0 0.0 0.00 0.00 0.00 71 1013.0
20260905015526 84 164 0.0 0.0 0.00 0.00 0.00 70 1013.0
20260905015022 85 164 0.0 0.0 0.00 0.00 0.00 69 1012.8
20260905014517 85 164 0.0 0.0 0.00 0.00 0.00 68 1012.6
20260905014012 86 164 0.0 0.0 0.00 0.00 0.00 67 1012.6
20260905013508 86 164 0.0 0.0 0.00 0.00 0.00 66 1012.4
20260905013004 87 164 0.0 0.0 0.00 0.00 0.00 64 1012.5
20260905012458 87 164 0.0 0.0 0.00 0.00 0.00 64 1012.6
20260905011955 87 164 0.0 0.0 0.00 0.00 0.00 63 1012.4
20260905011450 88 164 0.0 0.0 0.00 0.00 0.00 61 1012.4
20260905010946 88 164 0.0 0.0 0.00 0.00 0.00 61 1012.5
20260905010441 89 164 0.0 0.0 0.00 0.00 0.00 60 1012.3
20260905005937 89 164 0.0 0.0 0.00 0.00 0.00 59 1012.2
20260905005433 89 164 0.0 0.0 0.00 0.00 0.00 59 1012.2
20260905004933 89 164 0.0 0.0 0.00 0.00 0.00 58 1012.5
20260905004428 89 164 0.0 0.0 0.00 0.00 0.00 58 1012.3
20260905003922 90 164 0.0 0.0 0.00 0.00 0.00 57 1012.2
20260905003419 91 164 0.0 0.0 0.00 0.00 0.00 56 1012.3
20260905002914 91 164 0.0 1.0 0.00 0.00 0.00 56 1012.3
20260905002413 92 164 1.0 1.0 0.00 0.00 0.00 54 1012.3
20260905001908 93 165 0.0 0.0 0.00 0.00 0.00 52 1012.4
20260905001403 94 165 0.0 2.0 0.00 0.00 0.00 51 1012.3
20260905000858 95 166 0.0 0.0 0.00 0.00 0.00 50 1012.1
20260905000355 95 165 0.0 2.0 0.00 0.00 0.00 49 1012.2
20260904235849 95 165 1.0 2.0 0.00 0.00 0.00 48 1012.3
20260904235344 95 167 3.0 3.0 0.00 0.00 0.00 48 1012.5
20260904234844 96 168 2.0 3.0 0.00 0.00 0.00 48 1012.3
20260904234339 95 169 0.0 2.0 0.00 0.00 0.00 49 1012.4
20260904233835 96 169 3.0 3.0 0.00 0.00 0.00 48 1012.4
20260904233330 95 171 2.0 5.0 0.00 0.00 0.00 48 1012.5
20260904232827 96 167 2.0 3.0 0.00 0.00 0.00 49 1012.4
20260904232323 96 165 3.0 3.0 0.00 0.00 0.00 48 1012.6
20260904231819 96 167 2.0 3.0 0.00 0.00 0.00 47 1012.5
20260904231313 96 169 3.0 6.0 0.00 0.00 0.00 48 1012.4
20260904230809 96 163 3.0 3.0 0.00 0.00 0.00 48 1012.5
20260904230307 96 163 3.0 5.0 0.00 0.00 0.00 47 1012.6
20260904225803 96 167 4.0 6.0 0.00 0.00 0.00 48 1012.4
20260904225301 96 166 2.0 5.0 0.00 0.00 0.00 48 1012.5
20260904224800 96 167 4.0 5.0 0.00 0.00 0.00 47 1012.7
20260904224256 96 170 1.0 3.0 0.00 0.00 0.00 47 1012.4
20260904223755 97 167 3.0 5.0 0.00 0.00 0.00 47 1012.5
20260904223255 97 166 2.0 5.0 0.00 0.00 0.00 47 1012.4
20260904222752 96 167 2.0 5.0 0.00 0.00 0.00 47 1012.5
20260904222247 96 170 3.0 5.0 0.00 0.00 0.00 47 1012.5
20260904221746 97 168 3.0 5.0 0.00 0.00 0.00 47 1012.6
20260904221241 97 164 3.0 8.0 0.00 0.00 0.00 47 1012.6
20260904220737 97 164 3.0 5.0 0.00 0.00 0.00 47 1012.6
20260904220236 96 169 2.0 3.0 0.00 0.00 0.00 48 1012.7
20260904215731 97 168 3.0 3.0 0.00 0.00 0.00 48 1012.7
20260904215222 97 167 2.0 5.0 0.00 0.00 0.00 48 1012.9
20260904214721 96 168 3.0 5.0 0.00 0.00 0.00 47 1013.0
20260904214213 97 175 1.0 3.0 0.00 0.00 0.00 47 1013.0
20260904213709 97 165 0.0 1.0 0.00 0.00 0.00 48 1012.8
20260904213206 96 169 2.0 3.0 0.00 0.00 0.00 47 1013.0
20260904212700 97 164 3.0 3.0 0.00 0.00 0.00 47 1012.9
20260904212155 97 165 2.0 3.0 0.00 0.00 0.00 47 1012.9
20260904211655 97 165 2.0 5.0 0.00 0.00 0.00 48 1012.9
20260904211151 97 165 1.0 5.0 0.00 0.00 0.00 48 1013.0
20260904210651 97 168 2.0 6.0 0.00 0.00 0.00 49 1013.0
20260904210146 96 169 2.0 3.0 0.00 0.00 0.00 50 1013.1
20260904205642 96 177 0.0 2.0 0.00 0.00 0.00 49 1013.0
20260904205138 96 162 2.0 5.0 0.00 0.00 0.00 49 1013.1
20260904204634 96 164 3.0 5.0 0.00 0.00 0.00 50 1013.3
20260904204130 96 165 4.0 5.0 0.00 0.00 0.00 49 1013.4
20260904203626 97 166 3.0 3.0 0.00 0.00 0.00 48 1013.3
20260904203122 97 167 1.0 3.0 0.00 0.00 0.00 48 1013.3